Weather History for Greenwood, SC

Change the Weather History Date:

Saturday, January 18, 2014

  Actual Average (KAND) Record (KAND)
Temperature  
Mean Temperature 36 °F -  
Max Temperature 43 °F 52 °F 72 °F (1949)
Min Temperature 27 °F 32 °F 10 °F (1976)
Degree Days  
Heating Degree Days 30    
Moisture  
Dew Point 12 °F    
Average Humidity 41    
Maximum Humidity 63    
Minimum Humidity 27    
Precipitation  
Precipitation 0.00 in - - ()
Sea Level Pressure  
Sea Level Pressure 30.08 in    
Wind  
Wind Speed 9 mph (WSW)    
Max Wind Speed 15 mph    
Max Gust Speed 24 mph    
Visibility 10 miles    
Events      
Averages and records for this station are not official NWS values.
T = Trace of Precipitation, MM = Missing Value Source: NWS Daily Summary

Daily Weather History Graph

Daily Weather History Graph

Search for Another Location

Airport:

Trip Planner

Search our weather history database for the weather conditions in past years. The results will help you decide how hot, cold, wet, or windy it might be!

Date:

Astronomy

Jan. 18, 2014 Rise Set
Actual Time 7:33 AM EST 5:44 PM EST
Civil Twilight 7:06 AM EST 6:12 PM EST
Nautical Twilight 6:35 AM EST 6:42 PM EST
Astronomical Twilight 6:05 AM EST 7:12 PM EST
Moon 8:16 PM EST (1/18) 8:40 AM EST (1/18)
Length of Visible Light 11h 05m
Length of Day
10h 11m
Waning Gibbous, 94% of the Moon is Illuminated
Jan 18
Waning Gibbous
Jan 24
Last Quarter
Jan 30
New
Feb 6
First Quarter
Feb 14
Full

Hourly Weather History & Observations

Time (EST) Temp. Windchill Dew Point Humidity Pressure Visibility Wind Dir Wind Speed Gust Speed Precip Events Conditions
12:56 AM 37.0 °F 29.8 °F 17.1 °F 44% 30.00 in 10.0 mi West 10.4 mph 16.1 mph N/A   Clear
1:56 AM 34.0 °F 26.6 °F 14.0 °F 44% 30.01 in 10.0 mi West 9.2 mph 16.1 mph N/A   Clear
2:56 AM 32.0 °F 22.5 °F 9.0 °F 38% 30.03 in 10.0 mi West 12.7 mph 21.9 mph N/A   Clear
3:56 AM 30.9 °F 22.8 °F 12.0 °F 46% 30.04 in 10.0 mi West 9.2 mph - N/A   Clear
4:56 AM 28.9 °F 21.1 °F 12.0 °F 49% 30.06 in 10.0 mi WSW 8.1 mph - N/A   Clear
5:56 AM 28.0 °F 24.2 °F 10.9 °F 49% 30.06 in 10.0 mi West 3.5 mph - N/A   Clear
6:56 AM 28.0 °F 20.8 °F 12.0 °F 51% 30.09 in 10.0 mi WSW 6.9 mph - N/A   Clear
7:56 AM 28.0 °F 20.8 °F 12.0 °F 51% 30.11 in 10.0 mi WSW 6.9 mph - N/A   Clear
8:56 AM 30.9 °F 21.7 °F 12.9 °F 47% 30.13 in 10.0 mi WSW 11.5 mph - N/A   Clear
9:56 AM 33.1 °F 23.0 °F 12.9 °F 43% 30.17 in 10.0 mi West 15.0 mph 24.2 mph N/A   Clear
10:56 AM 36.0 °F 27.5 °F 12.9 °F 39% 30.17 in 10.0 mi West 12.7 mph 19.6 mph N/A   Clear
11:56 AM 37.9 °F 30.9 °F 12.9 °F 36% 30.15 in 10.0 mi West 10.4 mph 18.4 mph N/A   Clear
12:56 PM 39.9 °F 33.9 °F 12.0 °F 32% 30.11 in 10.0 mi West 9.2 mph 20.7 mph N/A   Clear
1:56 PM 41.0 °F 34.3 °F 12.9 °F 32% 30.10 in 10.0 mi West 11.5 mph 20.7 mph N/A   Clear
2:56 PM 43.0 °F 37.2 °F 12.0 °F 28% 30.08 in 10.0 mi WSW 10.4 mph 21.9 mph N/A   Clear
3:56 PM 42.1 °F 34.5 °F 10.9 °F 28% 30.09 in 10.0 mi WSW 15.0 mph - N/A   Clear
4:56 PM 42.1 °F 36.6 °F 10.0 °F 27% 30.08 in 10.0 mi WSW 9.2 mph - N/A   Clear
5:56 PM 39.0 °F 34.8 °F 10.0 °F 30% 30.08 in 10.0 mi WSW 5.8 mph - N/A   Clear
6:56 PM 36.0 °F 33.3 °F 10.9 °F 36% 30.08 in 10.0 mi SW 3.5 mph - N/A   Clear
7:56 PM 34.0 °F 28.8 °F 12.9 °F 42% 30.07 in 10.0 mi SSW 5.8 mph - N/A   Clear
8:56 PM 35.1 °F 28.6 °F 12.9 °F 40% 30.06 in 10.0 mi SSW 8.1 mph - N/A   Partly Cloudy
9:56 PM 34.0 °F 28.8 °F 12.9 °F 42% 30.05 in 10.0 mi SSW 5.8 mph - N/A   Clear
10:56 PM 32.0 °F 27.5 °F 12.9 °F 45% 30.06 in 10.0 mi South 4.6 mph - N/A   Clear
11:56 PM 27.0 °F - 16.0 °F 63% 30.05 in 10.0 mi Calm Calm - N/A   Clear